| time (UTC) | temp F | wind direction | speed MPH | gust MPH | rain 1hr in | rain 24hr in | rain mn in | humidity % | barometer mb |
| 20260510154540 | 55 | 319 | 0.0 | 1.0 | 0.00 | 0.01 | 0.01 | 55 | 1016.6 |
| 20260510153034 | 56 | 122 | 0.0 | 0.0 | 0.00 | 0.01 | 0.01 | 53 | 1016.8 |
| 20260510151530 | 55 | 325 | 0.0 | 1.0 | 0.00 | 0.01 | 0.01 | 55 | 1017.3 |
| 20260510150026 | 54 | 345 | 0.0 | 0.0 | 0.00 | 0.01 | 0.01 | 58 | 1017.5 |
| 20260510144526 | 55 | 340 | 0.0 | 0.0 | 0.00 | 0.01 | 0.01 | 55 | 1017.8 |
| 20260510143020 | 55 | 158 | 0.0 | 0.0 | 0.00 | 0.01 | 0.01 | 62 | 1018.1 |
| 20260510141516 | 54 | 125 | 0.0 | 0.0 | 0.00 | 0.01 | 0.01 | 60 | 1018.4 |
| 20260510140015 | 53 | 193 | 0.0 | 0.0 | 0.00 | 0.01 | 0.01 | 61 | 1018.7 |
| 20260510134511 | 53 | 136 | 0.0 | 0.0 | 0.00 | 0.01 | 0.01 | 64 | 1019.0 |
| 20260510133009 | 53 | 79 | 0.0 | 0.0 | 0.00 | 0.01 | 0.01 | 66 | 1019.1 |
| 20260510131506 | 53 | 143 | 0.0 | 0.0 | 0.00 | 0.01 | 0.01 | 62 | 1019.4 |
| 20260510130012 | 53 | 24 | 0.0 | 0.0 | 0.00 | 0.01 | 0.01 | 66 | 1019.6 |
| 20260510124504 | 53 | 100 | 0.0 | 0.0 | 0.00 | 0.01 | 0.01 | 63 | 1019.9 |
| 20260510123104 | 53 | 119 | 0.0 | 0.0 | 0.00 | 0.01 | 0.01 | 70 | 1020.2 |
| 20260510121555 | 51 | 96 | 0.0 | 0.0 | 0.00 | 0.01 | 0.01 | 71 | 1020.4 |
| 20260510120054 | 51 | 210 | 0.0 | 0.0 | 0.00 | 0.01 | 0.01 | 72 | 1020.7 |
| 20260510114547 | 52 | 13 | 0.0 | 0.0 | 0.00 | 0.01 | 0.01 | 68 | 1020.8 |
| 20260510113052 | 51 | 20 | 0.0 | 0.0 | 0.00 | 0.01 | 0.01 | 68 | 1021.0 |
| 20260510111600 | 50 | 172 | 0.0 | 0.0 | 0.00 | 0.01 | 0.01 | 68 | 1021.2 |
| 20260510110038 | 49 | 344 | 0.0 | 0.0 | 0.00 | 0.01 | 0.01 | 71 | 1021.4 |
| 20260510104542 | 50 | 338 | 0.0 | 0.0 | 0.00 | 0.01 | 0.01 | 72 | 1021.6 |
| 20260510103037 | 48 | 3 | 0.0 | 0.0 | 0.00 | 0.01 | 0.01 | 76 | 1021.8 |
| 20260510101532 | 48 | 4 | 0.0 | 0.0 | 0.00 | 0.01 | 0.01 | 74 | 1021.9 |
| 20260510100030 | 49 | 313 | 0.0 | 0.0 | 0.01 | 0.01 | 0.01 | 72 | 1022.1 |
| 20260510094530 | 49 | 20 | 0.0 | 0.0 | 0.01 | 0.01 | 0.01 | 73 | 1022.1 |
| 20260510093027 | 49 | 22 | 0.0 | 2.0 | 0.01 | 0.01 | 0.01 | 76 | 1022.3 |
| 20260510091542 | 48 | 11 | 0.0 | 1.0 | 0.01 | 0.01 | 0.01 | 80 | 1022.4 |
| 20260510090019 | 47 | 20 | 0.0 | 2.0 | 0.00 | 0.00 | 0.00 | 84 | 1022.5 |
| 20260510084514 | 46 | 15 | 0.0 | 1.0 | 0.00 | 0.00 | 0.00 | 88 | 1022.7 |
| 20260510083012 | 45 | 354 | 0.0 | 3.0 | 0.00 | 0.00 | 0.00 | 91 | 1022.7 |
| 20260510081525 | 45 | 12 | 0.0 | 4.0 | 0.00 | 0.00 | 0.00 | 92 | 1022.8 |
| 20260510080009 | 44 | 6 | 0.0 | 2.0 | 0.00 | 0.00 | 0.00 | 94 | 1022.8 |
| 20260510074507 | 44 | 314 | 0.0 | 2.0 | 0.00 | 0.00 | 0.00 | 96 | 1022.8 |
| 20260510073100 | 42 | 313 | 0.0 | 1.0 | 0.00 | 0.00 | 0.00 | 96 | 1023.0 |
| 20260510071559 | 42 | 297 | 0.0 | 1.0 | 0.00 | 0.00 | 0.00 | 96 | 1023.0 |
| 20260510070157 | 41 | 17 | 0.0 | 1.0 | 0.00 | 0.00 | 0.00 | 96 | 1023.0 |
| 20260510064608 | 40 | 345 | 0.0 | 1.0 | 0.00 | 0.00 | 0.00 | 96 | 1023.2 |
| 20260510063054 | 39 | 360 | 0.0 | 1.0 | 0.00 | 0.00 | 0.00 | 96 | 1023.3 |
| 20260510061553 | 38 | 343 | 0.0 | 1.0 | 0.00 | 0.00 | 0.00 | 96 | 1023.3 |
| 20260510060053 | 37 | 343 | 0.0 | 0.0 | 0.00 | 0.00 | 0.00 | 96 | 1023.4 |
| 20260510054550 | 35 | 343 | 0.0 | 0.0 | 0.00 | 0.00 | 0.00 | 96 | 1023.5 |
| 20260510053050 | 34 | 343 | 0.0 | 0.0 | 0.00 | 0.00 | 0.00 | 96 | 1023.6 |
| 20260510051552 | 34 | 343 | 0.0 | 0.0 | 0.00 | 0.00 | 0.00 | 96 | 1023.7 |
| 20260510050057 | 34 | 343 | 0.0 | 0.0 | 0.00 | 0.00 | 0.00 | 96 | 1023.7 |
| 20260510044554 | 34 | 343 | 0.0 | 0.0 | 0.00 | 0.00 | 0.00 | 96 | 1023.6 |
| 20260510043046 | 34 | 343 | 0.0 | 0.0 | 0.00 | 0.00 | 0.00 | 96 | 1023.6 |
| 20260510041550 | 34 | 343 | 0.0 | 0.0 | 0.00 | 0.00 | 0.00 | 96 | 1023.6 |
| 20260510040043 | 34 | 343 | 0.0 | 0.0 | 0.00 | 0.00 | 0.00 | 96 | 1023.7 |
| 20260510034545 | 35 | 343 | 0.0 | 0.0 | 0.00 | 0.00 | 0.00 | 96 | 1023.7 |
| 20260510033040 | 35 | 343 | 0.0 | 0.0 | 0.00 | 0.00 | 0.00 | 96 | 1023.8 |
| 20260510031544 | 35 | 343 | 0.0 | 0.0 | 0.00 | 0.00 | 0.00 | 96 | 1023.8 |
| 20260510030038 | 36 | 343 | 0.0 | 0.0 | 0.00 | 0.00 | 0.00 | 96 | 1023.7 |
| 20260510024538 | 37 | 343 | 0.0 | 0.0 | 0.00 | 0.00 | 0.00 | 96 | 1023.5 |
| 20260510023032 | 37 | 343 | 0.0 | 0.0 | 0.00 | 0.00 | 0.00 | 96 | 1023.5 |
| 20260510021531 | 37 | 343 | 0.0 | 0.0 | 0.00 | 0.00 | 0.00 | 96 | 1023.6 |
| 20260510020030 | 37 | 343 | 0.0 | 0.0 | 0.00 | 0.00 | 0.00 | 96 | 1023.6 |
| 20260510014530 | 37 | 343 | 0.0 | 0.0 | 0.00 | 0.00 | 0.00 | 96 | 1023.6 |
| 20260510013025 | 38 | 343 | 0.0 | 0.0 | 0.00 | 0.00 | 0.00 | 96 | 1023.7 |
| 20260510011524 | 38 | 343 | 0.0 | 0.0 | 0.00 | 0.00 | 0.00 | 96 | 1023.8 |
| 20260510010022 | 39 | 343 | 0.0 | 0.0 | 0.00 | 0.00 | 0.00 | 96 | 1023.7 |
| 20260510004519 | 39 | 343 | 0.0 | 0.0 | 0.00 | 0.00 | 0.00 | 96 | 1023.8 |
| 20260510003017 | 39 | 345 | 0.0 | 0.0 | 0.00 | 0.00 | 0.00 | 96 | 1024.0 |
| 20260510001515 | 40 | 345 | 0.0 | 0.0 | 0.00 | 0.00 | 0.00 | 96 | 1024.0 |
| 20260510000013 | 40 | 344 | 0.0 | 0.0 | 0.00 | 0.00 | 0.00 | 96 | 1024.0 |
| 20260509234518 | 41 | 324 | 0.0 | 0.0 | 0.00 | 0.00 | 0.00 | 96 | 1024.1 |
| 20260509233016 | 41 | 323 | 0.0 | 0.0 | 0.00 | 0.00 | 0.00 | 96 | 1024.1 |
| 20260509231505 | 42 | 317 | 0.0 | 0.0 | 0.00 | 0.00 | 0.00 | 96 | 1024.1 |
| 20260509230004 | 42 | 315 | 0.0 | 0.0 | 0.00 | 0.00 | 0.00 | 96 | 1024.1 |
| 20260509224502 | 42 | 314 | 0.0 | 0.0 | 0.00 | 0.00 | 0.00 | 96 | 1024.1 |
| 20260509223001 | 42 | 311 | 0.0 | 0.0 | 0.00 | 0.00 | 0.00 | 96 | 1024.0 |
| 20260509221600 | 43 | 345 | 0.0 | 0.0 | 0.00 | 0.00 | 0.00 | 96 | 1024.1 |
| 20260509220057 | 43 | 5 | 0.0 | 0.0 | 0.00 | 0.00 | 0.00 | 96 | 1024.2 |
| 20260509214556 | 43 | 6 | 0.0 | 0.0 | 0.00 | 0.00 | 0.00 | 96 | 1024.1 |
| 20260509213056 | 44 | 6 | 0.0 | 0.0 | 0.00 | 0.00 | 0.00 | 96 | 1024.1 |
| 20260509211601 | 44 | 353 | 0.0 | 0.0 | 0.00 | 0.00 | 0.00 | 96 | 1024.2 |
| 20260509210107 | 44 | 19 | 0.0 | 4.0 | 0.00 | 0.00 | 0.00 | 96 | 1024.0 |
| 20260509204553 | 44 | 346 | 0.0 | 0.0 | 0.00 | 0.00 | 0.00 | 96 | 1023.9 |
| 20260509203051 | 44 | 13 | 1.0 | 4.0 | 0.00 | 0.00 | 0.00 | 96 | 1024.0 |
| 20260509201558 | 44 | 4 | 0.0 | 1.0 | 0.00 | 0.00 | 0.00 | 96 | 1023.9 |
| 20260509200058 | 44 | 13 | 0.0 | 2.0 | 0.00 | 0.00 | 0.00 | 96 | 1023.8 |
| 20260509194550 | 44 | 4 | 0.0 | 2.0 | 0.00 | 0.00 | 0.00 | 96 | 1023.8 |
| 20260509193053 | 43 | 18 | 0.0 | 3.0 | 0.00 | 0.00 | 0.00 | 96 | 1023.7 |
| 20260509191547 | 44 | 4 | 0.0 | 2.0 | 0.00 | 0.00 | 0.00 | 96 | 1023.7 |
| 20260509190052 | 44 | 30 | 0.0 | 3.0 | 0.00 | 0.00 | 0.00 | 96 | 1023.6 |
| 20260509184546 | 44 | 11 | 0.0 | 4.0 | 0.00 | 0.00 | 0.00 | 96 | 1023.7 |
| 20260509183043 | 44 | 16 | 1.0 | 7.0 | 0.00 | 0.00 | 0.00 | 96 | 1023.6 |
| 20260509181541 | 44 | 341 | 1.0 | 9.0 | 0.00 | 0.00 | 0.00 | 96 | 1023.4 |
| 20260509180038 | 44 | 4 | 0.0 | 7.0 | 0.00 | 0.00 | 0.00 | 96 | 1023.3 |
| 20260509174537 | 44 | 319 | 1.0 | 8.0 | 0.00 | 0.00 | 0.00 | 96 | 1023.2 |
| 20260509173036 | 44 | 359 | 3.0 | 10.0 | 0.00 | 0.00 | 0.00 | 96 | 1023.0 |
| 20260509171539 | 43 | 8 | 3.0 | 9.0 | 0.00 | 0.00 | 0.00 | 96 | 1023.1 |
| 20260509170034 | 44 | 342 | 3.0 | 7.0 | 0.00 | 0.00 | 0.00 | 96 | 1023.2 |
| 20260509164538 | 44 | 20 | 4.0 | 14.0 | 0.00 | 0.00 | 0.00 | 96 | 1023.1 |
| 20260509163051 | 44 | 22 | 3.0 | 10.0 | 0.00 | 0.00 | 0.00 | 96 | 1022.9 |
| 20260509161532 | 44 | 20 | 3.0 | 12.0 | 0.00 | 0.00 | 0.00 | 96 | 1023.0 |
| 20260509160025 | 44 | 359 | 4.0 | 10.0 | 0.00 | 0.00 | 0.00 | 96 | 1022.9 |